Flag for Canada Weather past 2 weeks in Kenora, Ontario, Canada

Now
23 °F

Light snow. Ice fog.


Feels Like: 15 °F
Forecast: 20 / 27 °F
Wind: 7 mph from South

Location: Kenora

Current Time: Dec 20, 2014 at 12:38:08 AM

Latest Report: Dec 19, 2014 at 11:00 PM


Visibility: 1 mi

Pressure: 30.12 "Hg

Humidity: 93%

Dew point: 21 °F

Location of KenoraLocation

Historic Weather in Kenora — Graph

°F

Kenora temperature yesterday

Maximum temperature yesterday: 23 °F (at 3:00 PM)
Minimum temperature yesterday: 18 °F (at 12:00 AM)
Average temperature yesterday: 20 °F

Past Weeks' High & Low Weather Summary

 TemperatureHumidityPressure
High34 °F (Dec 13, 7:00 PM)100% (Dec 7, 10:00 PM)30.67 "Hg (Dec 7, 10:00 PM)
Low-2 °F (Dec 6, 7:00 AM)49% (Dec 17, 2:00 PM)29.83 "Hg (Dec 15, 12:00 AM)
Average19 °F89%30.19 "Hg
* Reported Dec 4 11:00 PM — Dec 19 11:00 PM, Kenora, Weather by CustomWeather, © 2014

Note: Actual official high and low records may vary slightly from our data, if they occured in-between our weather recording intervals... More about our weather records

Advertising

Kenora weather history for previous 24 hours

 ConditionsComfort  
Time TempWeatherWind HumidityBarometerVisibility
11:00 PM
Dec 19
23 °FLight snow. Ice fog.7 mph93%30.12 "Hg1 mi
10:00 PM23 °FLight snow. Ice fog.8 mph93%30.13 "Hg1 mi
9:00 PM23 °FLight snow. Ice fog.7 mph93%30.13 "Hg1 mi
8:48 PM21 °FLight snow. Ice fog.6 mph100%30.13 "Hg1 mi
8:00 PM21 °FLight snow. Low clouds.8 mph100%30.14 "Hg2 mi
7:00 PM21 °FLight snow. Low clouds.7 mph100%30.15 "Hg2 mi
6:00 PM21 °FLight snow. Low clouds.7 mph93%30.15 "Hg6 mi
5:00 PM23 °FLight snow. Overcast.7 mph86%30.16 "Hg10 mi
4:00 PM23 °FLight snow. Overcast.7 mph86%30.15 "Hg6 mi
3:00 PM23 °FLight snow. Overcast.9 mph80%30.14 "Hg10 mi
2:00 PM21 °FLight snow. Overcast.9 mph86%30.14 "Hg12 mi
1:00 PM21 °FLight snow. Low clouds.9 mph86%30.16 "Hg12 mi
12:00 PM21 °FLight snow. Low clouds.10 mph86%30.17 "Hg12 mi
11:00 AM21 °FLight snow. Low clouds.13 mph86%30.19 "Hg12 mi
10:00 AM19 °FLight snow. Low clouds.8 mph93%30.20 "Hg15 mi
9:00 AM19 °FLight snow. Low clouds.8 mph86%30.21 "Hg15 mi
8:00 AM18 °FLight snow. Mostly cloudy.7 mph93%30.21 "Hg15 mi
7:00 AM18 °FMostly cloudy.8 mph93%30.21 "Hg15 mi
6:00 AM18 °FMostly cloudy.7 mph86%30.21 "Hg15 mi
5:00 AM18 °FMostly cloudy.7 mph86%30.22 "Hg15 mi
4:00 AM18 °FMostly cloudy.8 mph86%30.23 "Hg15 mi
3:00 AM18 °FLow clouds.10 mph86%30.24 "Hg15 mi
2:00 AM18 °FLow clouds.12 mph86%30.24 "Hg15 mi
1:00 AM18 °FLow clouds.12 mph86%30.24 "Hg15 mi
12:00 AM18 °FLow clouds.12 mph86%30.25 "Hg15 mi
Weather by CustomWeather, © 2014

See weather overviewHow to use our weather pages